Regional Weather Roundup
Issued by NWS

Home | Current Version | Previous Version | Graphics & Text | Print | Product List | Glossary On
Versions: 1 2 3 4 5 6 7 8 9 10 11 12 13 14 15 16 17 18 19 20 21 22 23 24 25 26 27
000
ASUS45 KCYS 212210
RWRWY

WYOMING REGIONAL WEATHER ROUNDUP
NATIONAL WEATHER SERVICE CHEYENNE WY
300 PM MST SUN JAN 21 2018

NOTE:  "FAIR" INDICATES FEW OR NO CLOUDS BELOW 12,000 FEET
WITH NO SIGNIFICANT WEATHER AND/OR OBSTRUCTIONS TO VISIBILITY.

WYZ001-212300-
YELLOWSTONE NATIONAL PARK

CITY           SKY/WX    TMP DP  RH WIND       PRES   REMARKS
LK YELLOWSTONE   N/A      7   2  80 CALM      30.06R
W YELLOWSTONE  NOT AVBL

$$
WYZ002>013-054>058-071-098>099-212300-
NORTHERN WYOMING

CITY           SKY/WX    TMP DP  RH WIND       PRES   REMARKS
JACKSON        NOT AVBL
CODY           FAIR      34   7  32 N5        30.00R WCI  30
GREYBULL       FAIR      32  21  64 SE10      30.05R WCI  24
WORLAND        FAIR      26  21  81 E6        30.05R WCI  19
SHERIDAN       FAIR      34  20  56 NW5       30.01S WCI  30
BUFFALO        FAIR      31  15  52 NW10      30.00R WCI  22
GILLETTE       FAIR      31  23  72 NW7       29.99S WCI  24
HULETT         FAIR      32  21  64 N6        29.99R WCI  26
NEWCASTLE      FAIR      30  21  69 NW10      29.97S WCI  21

$$
WYZ014>020-022>026-101>103-212300-
CENTRAL WYOMING

CITY           SKY/WX    TMP DP  RH WIND       PRES   REMARKS
BIG PINEY      FAIR      29   3  33 N10       30.01R WCI  20
PINEDALE       FAIR      27   7  43 NW9       30.01R WCI  17
DUBOIS         FAIR      28   7  40 W10       29.95R WCI  19
LANDER         FAIR      26  17  68 CALM      30.01S
RIVERTON       FAIR      26  18  71 S6        30.02S WCI  19
CASPER         FAIR      24  17  74 W5        30.01R WCI  18
DOUGLAS        CLOUDY    25  20  81 NW14      29.99R WCI  13

$$
WYZ021-027>030-104>119-212300-
SOUTHERN WYOMING

CITY           SKY/WX    TMP DP  RH WIND       PRES   REMARKS
EVANSTON       FLURRIES  21  13  71 W9        30.08R WCI  11
FORT BRIDGER   FAIR      23  15  70 W13       30.09R WCI  11
ROCK SPRINGS   LGT SNOW  20  16  84 SW12      30.03R FOG     WCI   8
DIXON            N/A     24  13  63 N20       30.01R WCI  10
RAWLINS        LGT SNOW  20  16  84 NW13      29.98R FOG     WCI   7
SARATOGA       CLOUDY    19  16  86 NW13G18   29.95R WCI   7
LARAMIE        SNOW      17  15  92 NW22G28   29.87R VSB 1/2 WCI   0
CHEYENNE       LGT SNOW  21  19  92 N20G30    29.87R VSB 3/4 WCI   6
TORRINGTON     LGT SNOW  27  26  96 NW15G25   29.94R VSB 3/4 WCI  15

$$




USA.gov is the U.S. government's official web portal to all federal, state and local government web resources and services.